Find Starlink 31950

NORAD ID: 59863 Int'l Des: 2024-098 Owner: SPXS Country: US Constellation: starlink operational
LEOCIRCULAR

リアルタイム位置

3D地球を読み込み中...

Starlink 31950について

説明を読み込み中...

次回通過

Passes for default location (London). Set your location on the main map for personalized predictions.

高度履歴

Loading altitude history...

軌道要素

1 59863U 24098F 26125.56629184 .00000271 00000-0 19350-4 0 9993
2 59863 42.9990 316.8796 0000749 282.6137 77.4631 15.27581596110543
Epoch: May 5, 2026 • Age: 14 hours

現在のステータス

高度 486.6 km
速度 7.63 km/s
衛星直下点 43.04°N, 112.82°E
打ち上げ日 May 24, 2024
運用期間 1.9 years
タイプ internet

技術仕様

分類 Payload
質量 730.00 kg
乾燥質量 700.00 kg
総質量 730.00 kg
長さ 0.30 m
直径 4.10 m
スパン 29.00 m
形状 Box + pan
製造者 SPXS
バスタイプ Starlink V2M
フェーズステータス In Orbit
所有者/国 SPXS/US

Most Searched